Flag for Brazil Weather past 2 weeks in Brasilia, Distrito Federal, Brazil

Now
70 °F

Clear.


Feels Like: 70 °F
Forecast: N/A
Wind: No wind

Location: Brasilia Aeroporto

Current Time: Aug 30, 2015 at 8:14:05 PM

Latest Report: Aug 30, 2015 at 8:00 PM


Visibility: 10 mi

Pressure: 30.18 "Hg (26.59 "Hg at 1091m altitude)

Humidity: 53%

Dew point: 52 °F

Location of BrasiliaLocation

Historic Weather in Brasilia — Graph

°F

Brasilia temperature yesterday

Maximum temperature yesterday: 84 °F (at 2:00 PM)
Minimum temperature yesterday: 64 °F (at 11:00 PM)
Average temperature yesterday: 74 °F

Past Weeks' High & Low Weather Summary

 TemperatureHumidityPressure
High90 °F (Aug 27, 2:00 PM)94% (Aug 19, 5:00 AM)30.30 "Hg (Aug 19, 5:00 AM)
Low50 °F (Aug 19, 5:00 AM)20% (Aug 26, 4:00 PM)29.98 "Hg (Aug 24, 4:00 PM)
Average71 °F52%30.13 "Hg
* Reported Aug 15 6:00 PM — Aug 30 6:00 PM, Brasilia, Weather by CustomWeather, © 2015

Note: Actual official high and low records may vary slightly from our data, if they occured in-between our weather recording intervals... More about our weather records

Advertising

Brasilia weather history for previous 24 hours

 ConditionsComfort  
Time TempWeatherWind HumidityBarometerVisibility
6:00 PM
Sun, Aug 30
79 °FSunny.8 mph37%30.15 "Hg10 mi
5:00 PM82 °FSunny.12 mph32%30.15 "Hg10 mi
4:00 PM86 °FPassing clouds.12 mph29%30.15 "HgN/A
3:00 PM86 °FScattered clouds.13 mph29%30.15 "HgN/A
2:00 PM84 °FScattered clouds.10 mph31%30.18 "HgN/A
1:00 PM82 °FSunny.12 mph35%30.21 "Hg10 mi
12:00 PM82 °FSunny.15 mph37%30.24 "Hg10 mi
11:00 AM79 °FSunny.12 mph42%30.27 "Hg10 mi
10:00 AM75 °FSunny.10 mph50%30.27 "Hg10 mi
9:00 AM73 °FSunny.14 mph53%30.24 "Hg10 mi
8:00 AM70 °FSunny.13 mph60%30.24 "Hg10 mi
7:00 AM64 °FSunny.6 mph73%30.21 "Hg10 mi
6:00 AM63 °FClear.2 mph73%30.21 "Hg10 mi
5:00 AM63 °FClear.2 mph73%30.18 "Hg10 mi
4:00 AM59 °FClear.No wind82%30.15 "Hg10 mi
3:00 AM61 °FClear.No wind77%30.15 "Hg10 mi
2:00 AM63 °FClear.3 mph73%30.15 "Hg10 mi
1:00 AM64 °FClear.No wind73%30.18 "Hg10 mi
12:00 AM66 °FClear.5 mph68%30.21 "Hg10 mi
11:00 PM
Sat, Aug 29
64 °FClear.3 mph73%30.21 "Hg10 mi
10:00 PM68 °FClear.6 mph64%30.21 "Hg10 mi
9:00 PM70 °FClear.7 mph60%30.21 "Hg10 mi
8:00 PM72 °FClear.6 mph53%30.18 "Hg10 mi
Weather by CustomWeather, © 2015

See weather overviewHow to use our weather pages